Wheeling, WV

9:59 AM EDT on March 27, 2017 (GMT -0400)
Wheeling-Ohio County

Weather History for KHLG - October, 2012

Change the Weather History Date:

Thursday, October 18, 2012

  Actual Average Record
Temperature  
Mean Temperature 57 °F 52 °F  
Max Temperature 67 °F 62 °F 81 °F (2016)
Min Temperature 46 °F 43 °F 30 °F (2001)
Degree Days  
Heating Degree Days 8 13  
Month to date heating degree days 199 181  
Since 1 July heating degree days 324 282  
Cooling Degree Days 0    
Month to date cooling degree days 9  
Year to date cooling degree days 983  
Growing Degree Days 7 (Base 50)    
Moisture  
Dew Point 44 °F    
Average Humidity 68    
Maximum Humidity 93    
Minimum Humidity 42    
Precipitation  
Precipitation 0.09 in 0.09 in 1.13 in (2004)
Month to date precipitation 0.56 1.51  
Sea Level Pressure  
Sea Level Pressure 29.73 in    
Wind  
Wind Speed 9 mph (SSE)    
Max Wind Speed 28 mph    
Max Gust Speed 38 mph    
Visibility 10 miles    
Events Rain    
T = Trace of Precipitation, MM = Missing Value Source: NWS Daily Summary

Daily Weather History Graph

Daily Weather History Graph

Search for Another Location

Airport or City:

Trip Planner

Search our weather history database for the weather conditions in past years. The results will help you decide how hot, cold, wet, or windy it might be!

Date:

Astronomy

Oct. 18, 2012 Rise Set
Actual Time 7:36 AM EDT 6:37 PM EDT
Civil Twilight 7:09 AM EDT 7:05 PM EDT
Nautical Twilight 6:37 AM EDT 7:36 PM EDT
Astronomical Twilight 6:06 AM EDT 8:08 PM EDT
Moon 11:17 AM EDT (10/18) 9:10 PM EDT (10/18)
Length of Visible Light 11h 55m
Length of Day
11h 00m
Waxing Crescent, 14% of the Moon is Illuminated
Oct 18
Waxing Crescent
Oct 21
First Quarter
Oct 29
Full
Nov 6
Last Quarter
Nov 13
New

Hourly Weather History & Observations

Time (EDT) Temp. Windchill Dew Point Humidity Pressure Visibility Wind Dir Wind Speed Gust Speed Precip Events Conditions
12:53 AM 57.9 °F - 37.9 °F 47% 29.73 in 10.0 mi SSE 8.1 mph - N/A   Clear
1:53 AM 55.9 °F - 37.9 °F 51% 29.73 in 10.0 mi SE 6.9 mph - N/A   Clear
2:53 AM 54.0 °F - 37.9 °F 55% 29.73 in 10.0 mi SE 6.9 mph - N/A   Clear
3:53 AM 55.0 °F - 39.0 °F 55% 29.70 in 10.0 mi SSE 8.1 mph - N/A   Clear
4:53 AM 54.0 °F - 39.9 °F 59% 29.69 in 10.0 mi SSE 9.2 mph - N/A   Clear
5:53 AM 54.0 °F - 41.0 °F 62% 29.68 in 10.0 mi SSE 9.2 mph - N/A   Clear
6:53 AM 55.0 °F - 41.0 °F 59% 29.69 in 10.0 mi SSE 10.4 mph - N/A   Partly Cloudy
7:53 AM 55.9 °F - 41.0 °F 57% 29.69 in 10.0 mi SSE 13.8 mph - N/A   Clear
8:53 AM 57.9 °F - 42.1 °F 56% 29.69 in 10.0 mi South 12.7 mph 21.9 mph N/A   Scattered Clouds
9:53 AM 61.0 °F - 43.0 °F 52% 29.66 in 10.0 mi SSE 17.3 mph 24.2 mph N/A   Clear
10:53 AM 63.0 °F - 43.0 °F 48% 29.66 in 10.0 mi SSE 16.1 mph 27.6 mph N/A   Mostly Cloudy
11:53 AM 66.0 °F - 43.0 °F 43% 29.66 in 10.0 mi SSW 12.7 mph 25.3 mph N/A   Scattered Clouds
12:53 PM 66.0 °F - 44.1 °F 45% 29.66 in 10.0 mi SSW 16.1 mph 31.1 mph N/A   Overcast
1:53 PM 64.0 °F - 45.0 °F 50% 29.68 in 10.0 mi WSW 16.1 mph 26.5 mph N/A   Overcast
2:53 PM 54.0 °F - 48.0 °F 80% 29.72 in 6.0 mi West 9.2 mph 20.7 mph 0.01 in Rain Light Rain
3:53 PM 52.0 °F - 48.0 °F 86% 29.74 in 8.0 mi West 4.6 mph - 0.04 in Rain Light Rain
4:53 PM 51.1 °F - 48.0 °F 89% 29.75 in 10.0 mi WSW 4.6 mph - 0.02 in   Overcast
5:53 PM 51.1 °F - 48.9 °F 92% 29.76 in 10.0 mi ESE 4.6 mph - 0.00 in   Mostly Cloudy
6:53 PM 50.0 °F - 48.0 °F 93% 29.78 in 10.0 mi SE 6.9 mph - 0.01 in   Overcast
7:53 PM 51.1 °F - 48.0 °F 89% 29.83 in 10.0 mi South 4.6 mph - 0.00 in Rain Light Rain
8:53 PM 51.1 °F - 48.0 °F 89% 29.82 in 10.0 mi SSE 9.2 mph - 0.00 in   Overcast
9:53 PM 50.0 °F - 45.0 °F 83% 29.82 in 10.0 mi South 11.5 mph - 0.01 in   Mostly Cloudy
10:53 PM 48.0 °F - 45.0 °F 89% 29.82 in 10.0 mi SE 5.8 mph - N/A   Clear
11:53 PM 46.0 °F 43.1 °F 45.0 °F 96% 29.80 in 10.0 mi SE 5.8 mph - N/A   Clear